<?xml version="1.0" encoding="UTF-8" standalone="no" ?>
<gpx xmlns="http://www.topografix.com/GPX/1/1" xmlns:xsi="http://www.w3.org/2001/XMLSchema-instance" xsi:schemaLocation="http://www.topografix.com/GPX/1/1 http://www.topografix.com/GPX/1/1/gpx.xsd" version="1.1" creator="VisuGPX - https://www.visugpx.com">
  <metadata>
    <name>Alpilles, Aureille - Mont Opies 15Km</name>
    <desc><![CDATA[Une petite rando pour aller voie le sommet des Alpilles]]></desc>
  </metadata>
  <trk>
    <name><![CDATA[Mont Opies]]></name>
    <trkseg>
      <trkpt lat="43.7073" lon="4.94806">
        <ele>135.2</ele>
        <time>2011-05-23T08:15:49Z</time>
      </trkpt>
      <trkpt lat="43.70719" lon="4.94882">
        <ele>137.2</ele>
        <time>2011-05-23T08:15:49Z</time>
      </trkpt>
      <trkpt lat="43.7072" lon="4.94977">
        <ele>138.8</ele>
        <time>2011-05-23T08:15:49Z</time>
      </trkpt>
      <trkpt lat="43.70654" lon="4.95104">
        <ele>137.8</ele>
        <time>2011-05-23T08:15:49Z</time>
      </trkpt>
      <trkpt lat="43.70617" lon="4.95166">
        <ele>139.7</ele>
        <time>2011-05-23T08:15:49Z</time>
      </trkpt>
      <trkpt lat="43.70596" lon="4.95223">
        <ele>142.1</ele>
        <time>2011-05-23T08:15:49Z</time>
      </trkpt>
      <trkpt lat="43.70616" lon="4.9535">
        <ele>143.1</ele>
        <time>2011-05-23T08:15:49Z</time>
      </trkpt>
      <trkpt lat="43.70631" lon="4.95545">
        <ele>146.2</ele>
        <time>2011-05-23T08:15:49Z</time>
      </trkpt>
      <trkpt lat="43.70643" lon="4.95591">
        <ele>147.1</ele>
        <time>2011-05-23T08:15:49Z</time>
      </trkpt>
      <trkpt lat="43.70666" lon="4.95565">
        <ele>147.4</ele>
        <time>2011-05-23T08:15:49Z</time>
      </trkpt>
      <trkpt lat="43.70715" lon="4.9558">
        <ele>149.1</ele>
        <time>2011-05-23T08:15:49Z</time>
      </trkpt>
      <trkpt lat="43.70763" lon="4.95596">
        <ele>150.9</ele>
        <time>2011-05-23T08:15:49Z</time>
      </trkpt>
      <trkpt lat="43.70848" lon="4.95622">
        <ele>153.4</ele>
        <time>2011-05-23T08:15:49Z</time>
      </trkpt>
      <trkpt lat="43.70954" lon="4.95677">
        <ele>160.7</ele>
        <time>2011-05-23T08:15:49Z</time>
      </trkpt>
      <trkpt lat="43.70994" lon="4.95679">
        <ele>162.2</ele>
        <time>2011-05-23T08:15:49Z</time>
      </trkpt>
      <trkpt lat="43.71002" lon="4.95724">
        <ele>165.6</ele>
        <time>2011-05-23T08:15:49Z</time>
      </trkpt>
      <trkpt lat="43.7107" lon="4.9575">
        <ele>168.5</ele>
        <time>2011-05-23T08:15:49Z</time>
      </trkpt>
      <trkpt lat="43.71227" lon="4.95883">
        <ele>175.3</ele>
        <time>2011-05-23T08:15:49Z</time>
      </trkpt>
      <trkpt lat="43.71263" lon="4.95907">
        <ele>177.2</ele>
        <time>2011-05-23T08:15:49Z</time>
      </trkpt>
      <trkpt lat="43.71312" lon="4.95892">
        <ele>177.9</ele>
        <time>2011-05-23T08:15:49Z</time>
      </trkpt>
      <trkpt lat="43.71359" lon="4.95966">
        <ele>181.7</ele>
        <time>2011-05-23T08:15:49Z</time>
      </trkpt>
      <trkpt lat="43.71358" lon="4.96029">
        <ele>185.4</ele>
        <time>2011-05-23T08:15:49Z</time>
      </trkpt>
      <trkpt lat="43.71493" lon="4.96251">
        <ele>196.6</ele>
        <time>2011-05-23T08:15:49Z</time>
      </trkpt>
      <trkpt lat="43.71512" lon="4.96284">
        <ele>197.8</ele>
        <time>2011-05-23T08:15:49Z</time>
      </trkpt>
      <trkpt lat="43.71533" lon="4.96348">
        <ele>202.8</ele>
        <time>2011-05-23T08:15:49Z</time>
      </trkpt>
      <trkpt lat="43.71572" lon="4.96485">
        <ele>212.8</ele>
        <time>2011-05-23T08:15:49Z</time>
      </trkpt>
      <trkpt lat="43.71575" lon="4.96625">
        <ele>232.5</ele>
        <time>2011-05-23T08:15:49Z</time>
      </trkpt>
      <trkpt lat="43.71591" lon="4.96644">
        <ele>227.9</ele>
        <time>2011-05-23T08:15:49Z</time>
      </trkpt>
      <trkpt lat="43.71571" lon="4.96688">
        <ele>240.5</ele>
        <time>2011-05-23T08:15:49Z</time>
      </trkpt>
      <trkpt lat="43.71579" lon="4.96756">
        <ele>238.4</ele>
        <time>2011-05-23T08:15:49Z</time>
      </trkpt>
      <trkpt lat="43.71605" lon="4.96757">
        <ele>227.9</ele>
        <time>2011-05-23T08:15:49Z</time>
      </trkpt>
      <trkpt lat="43.71603" lon="4.9682">
        <ele>231</ele>
        <time>2011-05-23T08:15:49Z</time>
      </trkpt>
      <trkpt lat="43.71631" lon="4.9688">
        <ele>228.6</ele>
        <time>2011-05-23T08:15:49Z</time>
      </trkpt>
      <trkpt lat="43.71561" lon="4.96944">
        <ele>246.1</ele>
        <time>2011-05-23T08:15:49Z</time>
      </trkpt>
      <trkpt lat="43.7154" lon="4.96984">
        <ele>250.5</ele>
        <time>2011-05-23T08:15:49Z</time>
      </trkpt>
      <trkpt lat="43.71566" lon="4.97021">
        <ele>244.6</ele>
        <time>2011-05-23T08:15:49Z</time>
      </trkpt>
      <trkpt lat="43.71602" lon="4.97023">
        <ele>239.6</ele>
        <time>2011-05-23T08:15:49Z</time>
      </trkpt>
      <trkpt lat="43.71574" lon="4.97098">
        <ele>246.9</ele>
        <time>2011-05-23T08:15:49Z</time>
      </trkpt>
      <trkpt lat="43.71559" lon="4.97169">
        <ele>253.4</ele>
        <time>2011-05-23T08:15:49Z</time>
      </trkpt>
      <trkpt lat="43.71525" lon="4.97226">
        <ele>265.3</ele>
        <time>2011-05-23T08:15:49Z</time>
      </trkpt>
      <trkpt lat="43.71523" lon="4.97307">
        <ele>263.7</ele>
        <time>2011-05-23T08:15:49Z</time>
      </trkpt>
      <trkpt lat="43.71491" lon="4.97396">
        <ele>276.7</ele>
        <time>2011-05-23T08:15:49Z</time>
      </trkpt>
      <trkpt lat="43.71459" lon="4.97525">
        <ele>284.5</ele>
        <time>2011-05-23T08:15:49Z</time>
      </trkpt>
      <trkpt lat="43.71427" lon="4.97632">
        <ele>288.6</ele>
        <time>2011-05-23T08:15:49Z</time>
      </trkpt>
      <trkpt lat="43.71434" lon="4.97713">
        <ele>287.8</ele>
        <time>2011-05-23T08:15:49Z</time>
      </trkpt>
      <trkpt lat="43.7141" lon="4.97766">
        <ele>300.8</ele>
        <time>2011-05-23T08:15:49Z</time>
      </trkpt>
      <trkpt lat="43.71425" lon="4.97817">
        <ele>296.4</ele>
        <time>2011-05-23T08:15:49Z</time>
      </trkpt>
      <trkpt lat="43.7147" lon="4.97882">
        <ele>292.1</ele>
        <time>2011-05-23T08:15:49Z</time>
      </trkpt>
      <trkpt lat="43.71489" lon="4.98036">
        <ele>316</ele>
        <time>2011-05-23T08:15:49Z</time>
      </trkpt>
      <trkpt lat="43.71458" lon="4.98098">
        <ele>327.2</ele>
        <time>2011-05-23T08:15:49Z</time>
      </trkpt>
      <trkpt lat="43.71449" lon="4.98174">
        <ele>339.3</ele>
        <time>2011-05-23T08:15:49Z</time>
      </trkpt>
      <trkpt lat="43.71458" lon="4.98237">
        <ele>343.1</ele>
        <time>2011-05-23T08:15:49Z</time>
      </trkpt>
      <trkpt lat="43.71397" lon="4.98167">
        <ele>359.2</ele>
        <time>2011-05-23T08:15:49Z</time>
      </trkpt>
      <trkpt lat="43.71363" lon="4.98093">
        <ele>357.2</ele>
        <time>2011-05-23T08:15:49Z</time>
      </trkpt>
      <trkpt lat="43.71322" lon="4.98015">
        <ele>347</ele>
        <time>2011-05-23T08:15:49Z</time>
      </trkpt>
      <trkpt lat="43.71333" lon="4.98114">
        <ele>371.5</ele>
        <time>2011-05-23T08:15:49Z</time>
      </trkpt>
      <trkpt lat="43.71275" lon="4.9808">
        <ele>375.5</ele>
        <time>2011-05-23T08:15:49Z</time>
      </trkpt>
      <trkpt lat="43.71273" lon="4.98179">
        <ele>408.8</ele>
        <time>2011-05-23T08:15:49Z</time>
      </trkpt>
      <trkpt lat="43.71214" lon="4.98158">
        <ele>414.2</ele>
        <time>2011-05-23T08:15:49Z</time>
      </trkpt>
      <trkpt lat="43.71174" lon="4.98188">
        <ele>414.1</ele>
        <time>2011-05-23T08:15:49Z</time>
      </trkpt>
      <trkpt lat="43.71195" lon="4.98266">
        <ele>444.8</ele>
        <time>2011-05-23T08:15:49Z</time>
      </trkpt>
      <trkpt lat="43.71148" lon="4.98196">
        <ele>406.4</ele>
        <time>2011-05-23T08:15:49Z</time>
      </trkpt>
      <trkpt lat="43.71169" lon="4.98147">
        <ele>400.3</ele>
        <time>2011-05-23T08:15:49Z</time>
      </trkpt>
      <trkpt lat="43.71219" lon="4.98113">
        <ele>397.4</ele>
        <time>2011-05-23T08:15:49Z</time>
      </trkpt>
      <trkpt lat="43.71324" lon="4.97961">
        <ele>335.3</ele>
        <time>2011-05-23T08:15:49Z</time>
      </trkpt>
      <trkpt lat="43.71448" lon="4.9825">
        <ele>349.7</ele>
        <time>2011-05-23T08:15:49Z</time>
      </trkpt>
      <trkpt lat="43.71466" lon="4.98287">
        <ele>349</ele>
        <time>2011-05-23T08:15:49Z</time>
      </trkpt>
      <trkpt lat="43.715" lon="4.98361">
        <ele>344.2</ele>
        <time>2011-05-23T08:15:49Z</time>
      </trkpt>
      <trkpt lat="43.7152" lon="4.98474">
        <ele>328.6</ele>
        <time>2011-05-23T08:15:49Z</time>
      </trkpt>
      <trkpt lat="43.71559" lon="4.98621">
        <ele>312.1</ele>
        <time>2011-05-23T08:15:49Z</time>
      </trkpt>
      <trkpt lat="43.7165" lon="4.98643">
        <ele>310.9</ele>
        <time>2011-05-23T08:15:49Z</time>
      </trkpt>
      <trkpt lat="43.71669" lon="4.98702">
        <ele>295.2</ele>
        <time>2011-05-23T08:15:49Z</time>
      </trkpt>
      <trkpt lat="43.7173" lon="4.98737">
        <ele>297</ele>
        <time>2011-05-23T08:15:49Z</time>
      </trkpt>
      <trkpt lat="43.71748" lon="4.98909">
        <ele>253.5</ele>
        <time>2011-05-23T08:15:49Z</time>
      </trkpt>
      <trkpt lat="43.71779" lon="4.99009">
        <ele>241.8</ele>
        <time>2011-05-23T08:15:49Z</time>
      </trkpt>
      <trkpt lat="43.71825" lon="4.99115">
        <ele>235.2</ele>
        <time>2011-05-23T08:15:49Z</time>
      </trkpt>
      <trkpt lat="43.71787" lon="4.99217">
        <ele>217.4</ele>
        <time>2011-05-23T08:15:49Z</time>
      </trkpt>
      <trkpt lat="43.71779" lon="4.99401">
        <ele>215.6</ele>
        <time>2011-05-23T08:15:49Z</time>
      </trkpt>
      <trkpt lat="43.71796" lon="4.9951">
        <ele>209.5</ele>
        <time>2011-05-23T08:15:49Z</time>
      </trkpt>
      <trkpt lat="43.71788" lon="4.99578">
        <ele>206.1</ele>
        <time>2011-05-23T08:15:49Z</time>
      </trkpt>
      <trkpt lat="43.71819" lon="4.9962">
        <ele>202.4</ele>
        <time>2011-05-23T08:15:49Z</time>
      </trkpt>
      <trkpt lat="43.71896" lon="4.99682">
        <ele>191.3</ele>
        <time>2011-05-23T08:15:49Z</time>
      </trkpt>
      <trkpt lat="43.72002" lon="4.99651">
        <ele>184.9</ele>
        <time>2011-05-23T08:15:49Z</time>
      </trkpt>
      <trkpt lat="43.72026" lon="4.9958">
        <ele>188.1</ele>
        <time>2011-05-23T08:15:49Z</time>
      </trkpt>
      <trkpt lat="43.72063" lon="4.99545">
        <ele>188.7</ele>
        <time>2011-05-23T08:15:49Z</time>
      </trkpt>
      <trkpt lat="43.72043" lon="4.99418">
        <ele>199.7</ele>
        <time>2011-05-23T08:15:49Z</time>
      </trkpt>
      <trkpt lat="43.72009" lon="4.99336">
        <ele>208</ele>
        <time>2011-05-23T08:15:49Z</time>
      </trkpt>
      <trkpt lat="43.71979" lon="4.99248">
        <ele>219.2</ele>
        <time>2011-05-23T08:15:49Z</time>
      </trkpt>
      <trkpt lat="43.71978" lon="4.99158">
        <ele>232.6</ele>
        <time>2011-05-23T08:15:49Z</time>
      </trkpt>
      <trkpt lat="43.72001" lon="4.99024">
        <ele>250.7</ele>
        <time>2011-05-23T08:15:49Z</time>
      </trkpt>
      <trkpt lat="43.72033" lon="4.98908">
        <ele>257.6</ele>
        <time>2011-05-23T08:15:49Z</time>
      </trkpt>
      <trkpt lat="43.72084" lon="4.98816">
        <ele>256</ele>
        <time>2011-05-23T08:15:49Z</time>
      </trkpt>
      <trkpt lat="43.72146" lon="4.98702">
        <ele>242.5</ele>
        <time>2011-05-23T08:15:49Z</time>
      </trkpt>
      <trkpt lat="43.72141" lon="4.98621">
        <ele>252.4</ele>
        <time>2011-05-23T08:15:49Z</time>
      </trkpt>
      <trkpt lat="43.72163" lon="4.98527">
        <ele>245.5</ele>
        <time>2011-05-23T08:15:49Z</time>
      </trkpt>
      <trkpt lat="43.7213" lon="4.98417">
        <ele>247.1</ele>
        <time>2011-05-23T08:15:49Z</time>
      </trkpt>
      <trkpt lat="43.72126" lon="4.98295">
        <ele>245.8</ele>
        <time>2011-05-23T08:15:49Z</time>
      </trkpt>
      <trkpt lat="43.72189" lon="4.98267">
        <ele>242.6</ele>
        <time>2011-05-23T08:15:49Z</time>
      </trkpt>
      <trkpt lat="43.72237" lon="4.98161">
        <ele>250.2</ele>
        <time>2011-05-23T08:15:49Z</time>
      </trkpt>
      <trkpt lat="43.7231" lon="4.98002">
        <ele>250.2</ele>
        <time>2011-05-23T08:15:49Z</time>
      </trkpt>
      <trkpt lat="43.72267" lon="4.97892">
        <ele>261.9</ele>
        <time>2011-05-23T08:15:49Z</time>
      </trkpt>
      <trkpt lat="43.72188" lon="4.97771">
        <ele>274.8</ele>
        <time>2011-05-23T08:15:49Z</time>
      </trkpt>
      <trkpt lat="43.7217" lon="4.97716">
        <ele>280.5</ele>
        <time>2011-05-23T08:15:49Z</time>
      </trkpt>
      <trkpt lat="43.72212" lon="4.97596">
        <ele>266.4</ele>
        <time>2011-05-23T08:15:49Z</time>
      </trkpt>
      <trkpt lat="43.7226" lon="4.97522">
        <ele>256.7</ele>
        <time>2011-05-23T08:15:49Z</time>
      </trkpt>
      <trkpt lat="43.72258" lon="4.97468">
        <ele>259.6</ele>
        <time>2011-05-23T08:15:49Z</time>
      </trkpt>
      <trkpt lat="43.72213" lon="4.97434">
        <ele>265.1</ele>
        <time>2011-05-23T08:15:49Z</time>
      </trkpt>
      <trkpt lat="43.72208" lon="4.97357">
        <ele>273</ele>
        <time>2011-05-23T08:15:49Z</time>
      </trkpt>
      <trkpt lat="43.72178" lon="4.97266">
        <ele>290.6</ele>
        <time>2011-05-23T08:15:49Z</time>
      </trkpt>
      <trkpt lat="43.72222" lon="4.97191">
        <ele>289.5</ele>
        <time>2011-05-23T08:15:49Z</time>
      </trkpt>
      <trkpt lat="43.72278" lon="4.97162">
        <ele>280.9</ele>
        <time>2011-05-23T08:15:49Z</time>
      </trkpt>
      <trkpt lat="43.723" lon="4.97077">
        <ele>276.5</ele>
        <time>2011-05-23T08:15:49Z</time>
      </trkpt>
      <trkpt lat="43.72289" lon="4.97">
        <ele>278.4</ele>
        <time>2011-05-23T08:15:49Z</time>
      </trkpt>
      <trkpt lat="43.72329" lon="4.96935">
        <ele>274.2</ele>
        <time>2011-05-23T08:15:49Z</time>
      </trkpt>
      <trkpt lat="43.72341" lon="4.96863">
        <ele>275.9</ele>
        <time>2011-05-23T08:15:49Z</time>
      </trkpt>
      <trkpt lat="43.72307" lon="4.96798">
        <ele>284.4</ele>
        <time>2011-05-23T08:15:49Z</time>
      </trkpt>
      <trkpt lat="43.72288" lon="4.96743">
        <ele>289.8</ele>
        <time>2011-05-23T08:15:49Z</time>
      </trkpt>
      <trkpt lat="43.72331" lon="4.96727">
        <ele>283.9</ele>
        <time>2011-05-23T08:15:49Z</time>
      </trkpt>
      <trkpt lat="43.72334" lon="4.96628">
        <ele>292.6</ele>
        <time>2011-05-23T08:15:49Z</time>
      </trkpt>
      <trkpt lat="43.7237" lon="4.96594">
        <ele>283.3</ele>
        <time>2011-05-23T08:15:49Z</time>
      </trkpt>
      <trkpt lat="43.72359" lon="4.96539">
        <ele>287.6</ele>
        <time>2011-05-23T08:15:49Z</time>
      </trkpt>
      <trkpt lat="43.72386" lon="4.96491">
        <ele>282.8</ele>
        <time>2011-05-23T08:15:49Z</time>
      </trkpt>
      <trkpt lat="43.72483" lon="4.96527">
        <ele>272.8</ele>
        <time>2011-05-23T08:15:49Z</time>
      </trkpt>
      <trkpt lat="43.72506" lon="4.96379">
        <ele>267.5</ele>
        <time>2011-05-23T08:15:49Z</time>
      </trkpt>
      <trkpt lat="43.72545" lon="4.96273">
        <ele>262.3</ele>
        <time>2011-05-23T08:15:49Z</time>
      </trkpt>
      <trkpt lat="43.72558" lon="4.9612">
        <ele>259</ele>
        <time>2011-05-23T08:15:49Z</time>
      </trkpt>
      <trkpt lat="43.7262" lon="4.96024">
        <ele>254.5</ele>
        <time>2011-05-23T08:15:49Z</time>
      </trkpt>
      <trkpt lat="43.72656" lon="4.95872">
        <ele>244.7</ele>
        <time>2011-05-23T08:15:49Z</time>
      </trkpt>
      <trkpt lat="43.72657" lon="4.95814">
        <ele>240.1</ele>
        <time>2011-05-23T08:15:49Z</time>
      </trkpt>
      <trkpt lat="43.72684" lon="4.95788">
        <ele>240.1</ele>
        <time>2011-05-23T08:15:49Z</time>
      </trkpt>
      <trkpt lat="43.72666" lon="4.9572">
        <ele>235.9</ele>
        <time>2011-05-23T08:15:49Z</time>
      </trkpt>
      <trkpt lat="43.72629" lon="4.95632">
        <ele>232.2</ele>
        <time>2011-05-23T08:15:49Z</time>
      </trkpt>
      <trkpt lat="43.72614" lon="4.95559">
        <ele>232.6</ele>
        <time>2011-05-23T08:15:49Z</time>
      </trkpt>
      <trkpt lat="43.72621" lon="4.95429">
        <ele>226</ele>
        <time>2011-05-23T08:15:49Z</time>
      </trkpt>
      <trkpt lat="43.72665" lon="4.95363">
        <ele>223.8</ele>
        <time>2011-05-23T08:15:49Z</time>
      </trkpt>
      <trkpt lat="43.72727" lon="4.9538">
        <ele>228.8</ele>
        <time>2011-05-23T08:15:49Z</time>
      </trkpt>
      <trkpt lat="43.72768" lon="4.95274">
        <ele>223.7</ele>
        <time>2011-05-23T08:15:49Z</time>
      </trkpt>
      <trkpt lat="43.72815" lon="4.95231">
        <ele>222.9</ele>
        <time>2011-05-23T08:15:49Z</time>
      </trkpt>
      <trkpt lat="43.72855" lon="4.95219">
        <ele>223.4</ele>
        <time>2011-05-23T08:15:49Z</time>
      </trkpt>
      <trkpt lat="43.72883" lon="4.9513">
        <ele>220.2</ele>
        <time>2011-05-23T08:15:49Z</time>
      </trkpt>
      <trkpt lat="43.72891" lon="4.95054">
        <ele>227.1</ele>
        <time>2011-05-23T08:15:49Z</time>
      </trkpt>
      <trkpt lat="43.72833" lon="4.95042">
        <ele>219.4</ele>
        <time>2011-05-23T08:15:49Z</time>
      </trkpt>
      <trkpt lat="43.72808" lon="4.95109">
        <ele>216.5</ele>
        <time>2011-05-23T08:15:49Z</time>
      </trkpt>
      <trkpt lat="43.72753" lon="4.95111">
        <ele>213.2</ele>
        <time>2011-05-23T08:15:49Z</time>
      </trkpt>
      <trkpt lat="43.72708" lon="4.95068">
        <ele>209</ele>
        <time>2011-05-23T08:15:49Z</time>
      </trkpt>
      <trkpt lat="43.72707" lon="4.94996">
        <ele>209.8</ele>
        <time>2011-05-23T08:15:49Z</time>
      </trkpt>
      <trkpt lat="43.72661" lon="4.94967">
        <ele>212</ele>
        <time>2011-05-23T08:15:49Z</time>
      </trkpt>
      <trkpt lat="43.72644" lon="4.94894">
        <ele>205.1</ele>
        <time>2011-05-23T08:15:49Z</time>
      </trkpt>
      <trkpt lat="43.72621" lon="4.9473">
        <ele>207.2</ele>
        <time>2011-05-23T08:15:49Z</time>
      </trkpt>
      <trkpt lat="43.72585" lon="4.94765">
        <ele>204.8</ele>
        <time>2011-05-23T08:15:49Z</time>
      </trkpt>
      <trkpt lat="43.72503" lon="4.94761">
        <ele>207.8</ele>
        <time>2011-05-23T08:15:49Z</time>
      </trkpt>
      <trkpt lat="43.72427" lon="4.9478">
        <ele>205.2</ele>
        <time>2011-05-23T08:15:49Z</time>
      </trkpt>
      <trkpt lat="43.72367" lon="4.94836">
        <ele>195.5</ele>
        <time>2011-05-23T08:15:49Z</time>
      </trkpt>
      <trkpt lat="43.72295" lon="4.94851">
        <ele>193.4</ele>
        <time>2011-05-23T08:15:49Z</time>
      </trkpt>
      <trkpt lat="43.72213" lon="4.94838">
        <ele>191</ele>
        <time>2011-05-23T08:15:49Z</time>
      </trkpt>
      <trkpt lat="43.72078" lon="4.94917">
        <ele>185.4</ele>
        <time>2011-05-23T08:15:49Z</time>
      </trkpt>
      <trkpt lat="43.72063" lon="4.94827">
        <ele>197.7</ele>
        <time>2011-05-23T08:15:49Z</time>
      </trkpt>
      <trkpt lat="43.72069" lon="4.94741">
        <ele>209.3</ele>
        <time>2011-05-23T08:15:49Z</time>
      </trkpt>
      <trkpt lat="43.72117" lon="4.94653">
        <ele>210.3</ele>
        <time>2011-05-23T08:15:49Z</time>
      </trkpt>
      <trkpt lat="43.72163" lon="4.94606">
        <ele>215.3</ele>
        <time>2011-05-23T08:15:49Z</time>
      </trkpt>
      <trkpt lat="43.72237" lon="4.94555">
        <ele>224.8</ele>
        <time>2011-05-23T08:15:49Z</time>
      </trkpt>
      <trkpt lat="43.72225" lon="4.94509">
        <ele>233</ele>
        <time>2011-05-23T08:15:49Z</time>
      </trkpt>
      <trkpt lat="43.72156" lon="4.94506">
        <ele>235.7</ele>
        <time>2011-05-23T08:15:49Z</time>
      </trkpt>
      <trkpt lat="43.72046" lon="4.94474">
        <ele>246.4</ele>
        <time>2011-05-23T08:15:49Z</time>
      </trkpt>
      <trkpt lat="43.71974" lon="4.94457">
        <ele>246.1</ele>
        <time>2011-05-23T08:15:49Z</time>
      </trkpt>
      <trkpt lat="43.71893" lon="4.94418">
        <ele>234.6</ele>
        <time>2011-05-23T08:15:49Z</time>
      </trkpt>
      <trkpt lat="43.71918" lon="4.94482">
        <ele>235.7</ele>
        <time>2011-05-23T08:15:49Z</time>
      </trkpt>
      <trkpt lat="43.71887" lon="4.94539">
        <ele>225.5</ele>
        <time>2011-05-23T08:15:49Z</time>
      </trkpt>
      <trkpt lat="43.71827" lon="4.9459">
        <ele>213.9</ele>
        <time>2011-05-23T08:15:49Z</time>
      </trkpt>
      <trkpt lat="43.7178" lon="4.94638">
        <ele>201.8</ele>
        <time>2011-05-23T08:15:49Z</time>
      </trkpt>
      <trkpt lat="43.71721" lon="4.94653">
        <ele>193.3</ele>
        <time>2011-05-23T08:15:49Z</time>
      </trkpt>
      <trkpt lat="43.71642" lon="4.9469">
        <ele>184.8</ele>
        <time>2011-05-23T08:15:49Z</time>
      </trkpt>
      <trkpt lat="43.71601" lon="4.94756">
        <ele>178.6</ele>
        <time>2011-05-23T08:15:49Z</time>
      </trkpt>
      <trkpt lat="43.71596" lon="4.9481">
        <ele>175.9</ele>
        <time>2011-05-23T08:15:49Z</time>
      </trkpt>
      <trkpt lat="43.71523" lon="4.94856">
        <ele>167.6</ele>
        <time>2011-05-23T08:15:49Z</time>
      </trkpt>
      <trkpt lat="43.71479" lon="4.9493">
        <ele>160.8</ele>
        <time>2011-05-23T08:15:49Z</time>
      </trkpt>
      <trkpt lat="43.71322" lon="4.94923">
        <ele>150.3</ele>
        <time>2011-05-23T08:15:49Z</time>
      </trkpt>
      <trkpt lat="43.71165" lon="4.94948">
        <ele>143.5</ele>
        <time>2011-05-23T08:15:49Z</time>
      </trkpt>
      <trkpt lat="43.71037" lon="4.94829">
        <ele>140.5</ele>
        <time>2011-05-23T08:15:49Z</time>
      </trkpt>
      <trkpt lat="43.70895" lon="4.94764">
        <ele>136.2</ele>
        <time>2011-05-23T08:15:49Z</time>
      </trkpt>
      <trkpt lat="43.70833" lon="4.9473">
        <ele>134.9</ele>
        <time>2011-05-23T08:15:49Z</time>
      </trkpt>
      <trkpt lat="43.70787" lon="4.94773">
        <ele>135.4</ele>
        <time>2011-05-23T08:15:49Z</time>
      </trkpt>
      <trkpt lat="43.70787" lon="4.94773">
        <ele>135.4</ele>
        <time>2011-05-23T08:15:49Z</time>
      </trkpt>
    </trkseg>
  </trk>
</gpx>